This demonstration page uses our WeatherBlox Daily Observations layout. Learn more.

38.88101, -77.10428

Hourly Observations for October 22, 2016

Temp ( °F °C ) Dew Point ( °F °C ) Humidity (%) Winds ( mph kmh ) Pressure ( in mb ) Visibility ( mi km ) Precip ( " mm )
12:52 am 00:52 Cloudy 58 14.4 48 8.9 70 70 NW 24 39 29.62 1003 10 16.09344 0 0
1:52 am 01:52 Cloudy 57 13.9 45 7.2 64 64 NW 22 35 29.59 1002 10 16.09344 0 0
2:52 am 02:52 Cloudy 56 13.3 45 7.2 67 67 NW 23 37 29.62 1003 10 16.09344 0 0
3:52 am 03:52 Cloudy 55 12.8 44 6.7 67 67 NW 25 41 29.62 1003 10 16.09344 0 0
4:52 am 04:52 Mostly Cloudy 55 12.8 44 6.7 67 67 WNW 15 24 29.62 1003 10 16.09344 0 0
5:52 am 05:52 Cloudy 55 12.8 43 6.1 64 64 NW 23 37 29.65 1004 10 16.09344 0 0
6:52 am 06:52 Cloudy 54 12.2 43 6.1 67 67 NW 18 30 29.65 1004 10 16.09344 0 0
7:52 am 07:52 Cloudy 55 12.8 41 5 59 59 NW 18 30 29.68 1005 10 16.09344 0.001 0.001
8:52 am 08:52 Mostly Cloudy 54 12.2 40 4.4 59 59 NW 21 33 29.71 1006 10 16.09344 0 0
9:52 am 09:52 Mostly Cloudy 53 11.7 35 1.7 51 51 NW 22 35 29.71 1006 10 16.09344 0 0
10:52 am 10:52 Mostly Cloudy 55 12.8 33 0.6 44 44 WNW 18 30 29.74 1007 10 16.09344 0 0
11:52 am 11:52 Mostly Cloudy 57 13.9 34 1.1 42 42 WNW 24 39 29.74 1007 10 16.09344 0 0
12:52 pm 12:52 Mostly Cloudy 59 15 33 0.6 38 38 WNW 23 37 29.74 1007 10 16.09344 0 0
1:52 pm 13:52 Mostly Cloudy 61 16.1 34 1.1 36 36 WNW 18 30 29.74 1007 10 16.09344 0 0
2:52 pm 14:52 Mostly Cloudy 59 15 34 1.1 39 39 WNW 25 41 29.74 1007 10 16.09344 0 0
3:52 pm 15:52 Mostly Cloudy 58 14.4 35 1.7 42 42 WNW 25 41 29.77 1008 10 16.09344 0 0
4:52 pm 16:52 Partly Cloudy 58 14.4 34 1.1 41 41 NW 20 31 29.77 1008 10 16.09344 0 0
5:52 pm 17:52 Mostly Cloudy 56 13.3 33 0.6 42 42 WNW 17 28 29.8 1009 10 16.09344 0 0
6:52 pm 18:52 Partly Cloudy 55 12.8 33 0.6 44 44 WNW 16 26 29.83 1010 10 16.09344 0 0
7:52 pm 19:52 Mostly Clear 53 11.7 33 0.6 47 47 WNW 16 26 29.88 1012 10 16.09344 0 0
8:52 pm 20:52 Mostly Clear 53 11.7 31 -0.6 43 43 W 14 22 29.88 1012 10 16.09344 0 0
9:52 pm 21:52 Mostly Clear 52 11.1 30 -1.1 43 43 WNW 14 22 29.91 1013 10 16.09344 0 0
10:52 pm 22:52 Mostly Clear 52 11.1 29 -1.7 41 41 WNW 12 19 29.91 1013 10 16.09344 0 0
11:52 pm 23:52 Clear 51 10.6 29 -1.7 43 43 WNW 12 19 29.91 1013 10 16.09344 0 0

Powered by AerisWeather